Regional Weather Roundup
Issued by NWS Newport/Morehead, NC

Current Version | Previous Version | Graphics & Text | Print | Product List | Glossary Off
Versions: 1 2 3 4 5 6 7 8 9 10 11 12 13 14 15 16 17 18 19 20 21 22 23 24 25 26 27 28 29 30 31 32 33 34 35 36 37 38 39 40 41 42 43 44 45 46 47 48 49 50
236 ASUS42 KMHX 220725 RWRMHX WEATHER ROUNDUP FOR EASTERN NORTH CAROLINA NATIONAL WEATHER SERVICE NEWPORT/MOREHEAD CITY NC 300 AM EDT MON MAY 22 2017 NOTE: "FAIR" INDICATES FEW OR NO CLOUDS BELOW 12,000 FEET WITH NO SIGNIFICANT WEATHER AND/OR OBSTRUCTIONS TO VISIBILITY NCZ015>017-031-032-045>047-102-103-220800- NORTH COAST CITY SKY/WX TMP DP RH WIND PRES REMARKS EDENTON CLOUDY 66 62 89 CALM 30.10F ELIZABETH CITY CLOUDY 68 68 100 SE3 30.09F KITTY HAWK NOT AVBL MANTEO CLOUDY 69 65 87 SE8 30.11S $$ NCZ045>047-081-094-103-104-220800- CENTRAL COAST CITY SKY/WX TMP DP RH WIND PRES REMARKS FRISCO CLOUDY 73 68 84 SE10 30.09F $$ NCZ095-097-098-100-101-220800- SOUTHERN COAST CITY SKY/WX TMP DP RH WIND PRES REMARKS BEAUFORT CLOUDY 71 70 96 CALM 30.09S CEDAR ISLAND NOT AVBL JACKSONVILLE CLOUDY 71 71 100 CALM 30.09F PINEY ISLAND MOSUNNY N/A N/A N/A S3 30.08F WILMINGTON MOCLDY 73 70 90 SE3 30.08F $$ NCZ011>013-027>030-043-044-078>080-089-090>093-098-220800- COASTAL PLAIN CITY SKY/WX TMP DP RH WIND PRES REMARKS AHOSKIE N/A 64 62 94 CALM 30.10F CLINTON CLOUDY 69 69 100 CALM 30.08S ELIZABETHTOWN N/A 68 68 100 SE3 30.07F FOG GOLDSBORO CLOUDY 67 67 100 E6 30.06F GREENVILLE CLOUDY 64 64 100 CALM 30.10F HAVELOCK CLOUDY 70 67 90 CALM 30.10S KENANSVILLE CLOUDY 70 68 94 CALM 30.09F FOG KINSTON CLOUDY 68 66 93 CALM 30.09F NEW BERN CLOUDY 69 69 100 CALM 30.10F RICHLANDS CLOUDY 68 67 96 CALM 30.09F ROCKY MOUNT CLOUDY 65 65 100 CALM 30.08F WASHINGTON CLOUDY 65 64 98 CALM 30.09F FOG WHITEVILLE CLOUDY 71 69 95 CALM 30.07S $$ AMZ130-135-150-152-154-156-158-170-250-252-270-ANZ085-086-088-633-658-670-220800- MARINE OBSERVATIONS STATION/POSITION TIME TEMP WIND PRES WAVE SWELL AIR SEA DIR/SP/G HT/PER HT/PER (UTC) (F) (DEG/KT/KT) (MB) (FT/S) (FT/S) CHESAPEAKE LIGHT NOT AVBL 64 E VA BEACH 0650 70 69 160/ 8/ 10 1020.4 6/ 8 5/ 8 DUCK 0700 67 66 140/ 10/ 11 1018.7 2 E DUCK 0700 65 N/A 4/ 7 OREGON INLET 0700 67 69 110/ 4/ 7 1019.2 13E OREGON INLT 0648 65 N/A 4/ 6 3/ 6 HATTERAS CG 0700 73 74 130/ 8/ 10 1018.6 DIAMOND BUOY 0650 76 79 130/ 16/ 19 1018.7 5/ 7 3/ 7 CAPE LOOKOUT 0700 72 140/ 4/ 4 1018.4 BEAUFORT LAB 0700 72 74 140/ 3/ 4 1018.1 30 SE NEW RVR IN 0708 74 76 210/ 6/ 8 1018.8 30 SE NEW RVR IN 0643 76 N/A 3/ 8 27 SE WRIGHTSVLE 0708 73 75 180/ 2/ 4 1017.7 5 SE WRIGHTSVLE 0708 75 76 180/ 6/ 12 1018.4 225 S CAPE HAT 0650 76 78 210/ 8/ 10 1019.5 3/ 9 3/ 9 41 SE CHARLESTON 0700 77 78 190/ 16/ 17 1018.0 $$

USA.gov is the U.S. government's official web portal to all federal, state and local government web resources and services.